Change the Weather History Date:

Saturday, November 9, 2013

  Actual Average Record
Temperature  
Mean Temperature 55 °F -  
Max Temperature 68 °F 72 °F 84 °F (1986)
Min Temperature 42 °F 47 °F 29 °F (1941)
Degree Days  
Heating Degree Days 10    
Growing Degree Days 5 (Base 50)    
Moisture  
Dew Point 45 °F    
Average Humidity 68    
Maximum Humidity 89    
Minimum Humidity 45    
Precipitation  
Precipitation 0.00 in - - ()
Sea Level Pressure  
Sea Level Pressure 30.24 in    
Wind  
Wind Speed 2 mph (ENE)    
Max Wind Speed 9 mph    
Max Gust Speed -    
Visibility 10 miles    
Events      
Averages and records for this station are not official NWS values.
T = Trace of Precipitation, MM = Missing Value Source: NWS Daily Summary

Daily Weather History Graph

Daily Weather History Graph

Search for Another Location

Airport or City:

Trip Planner

Search our weather history database for the weather conditions in past years. The results will help you decide how hot, cold, wet, or windy it might be!

Date:

Astronomy

Nov. 09, 2013 Rise Set
Actual Time 6:09 AM CST 4:50 PM CST
Civil Twilight 5:44 AM CST 5:15 PM CST
Nautical Twilight 5:15 AM CST 5:45 PM CST
Astronomical Twilight 4:46 AM CST 6:13 PM CST
Moon 11:50 AM CST (11/9) 11:14 PM CST (11/9)
Length of Visible Light 11h 31m
Length of Day
10h 40m
Waxing Crescent, 44% of the Moon is Illuminated
Nov 9
Waxing Crescent
Nov 9
First Quarter
Nov 17
Full
Nov 25
Last Quarter
Dec 2
New

Hourly Weather History & Observations

Time (CST) Temp. Windchill Dew Point Humidity Pressure Visibility Wind Dir Wind Speed Gust Speed Precip Events Conditions
12:56 AM 42.1 °F - 37.9 °F 85% 30.23 in 10.0 mi Calm Calm - N/A   Clear
1:56 AM 44.1 °F - 37.9 °F 79% 30.22 in 10.0 mi Calm Calm - N/A   Clear
2:56 AM 46.9 °F - 37.0 °F 68% 30.21 in 10.0 mi ESE 5.8 mph - N/A   Clear
3:56 AM 46.9 °F - 37.0 °F 68% 30.21 in 10.0 mi Calm Calm - N/A   Clear
4:56 AM 45.0 °F - 37.0 °F 74% 30.23 in 10.0 mi Calm Calm - N/A   Clear
5:56 AM 45.0 °F 43.5 °F 37.0 °F 74% 30.26 in 10.0 mi NNE 3.5 mph - N/A   Clear
6:56 AM 46.0 °F - 37.9 °F 73% 30.28 in 10.0 mi Calm Calm - N/A   Clear
7:56 AM 51.1 °F - 37.9 °F 61% 30.30 in 10.0 mi ENE 3.5 mph - N/A   Clear
8:56 AM 57.0 °F - 39.0 °F 51% 30.29 in 10.0 mi ESE 9.2 mph - N/A   Clear
9:56 AM 61.0 °F - 41.0 °F 48% 30.29 in 10.0 mi SE 5.8 mph - N/A   Mostly Cloudy
10:56 AM 64.9 °F - 44.1 °F 47% 30.28 in 10.0 mi Calm Calm - N/A   Mostly Cloudy
11:56 AM 68.0 °F - 46.0 °F 45% 30.25 in 10.0 mi Calm Calm - N/A   Mostly Cloudy
12:56 PM 66.9 °F - 48.9 °F 52% 30.21 in 10.0 mi SSE 5.8 mph - N/A   Clear
1:56 PM 68.0 °F - 50.0 °F 52% 30.20 in 10.0 mi East 5.8 mph - N/A   Clear
2:56 PM 68.0 °F - 50.0 °F 52% 30.19 in 10.0 mi NE 6.9 mph - N/A   Clear
3:56 PM 66.9 °F - 51.1 °F 57% 30.20 in 10.0 mi Calm Calm - N/A   Clear
4:56 PM 63.0 °F - 52.0 °F 67% 30.22 in 10.0 mi Calm Calm - N/A   Partly Cloudy
5:56 PM 60.1 °F - 53.1 °F 78% 30.23 in 10.0 mi Calm Calm - N/A   Clear
6:56 PM 57.0 °F - 53.1 °F 87% 30.23 in 10.0 mi Calm Calm - N/A   Clear
7:56 PM 55.0 °F - 52.0 °F 89% 30.23 in 10.0 mi North 4.6 mph - N/A   Clear
8:56 PM 55.9 °F - 52.0 °F 87% 30.24 in 10.0 mi North 3.5 mph - N/A   Clear
9:56 PM 55.9 °F - 50.0 °F 80% 30.25 in 10.0 mi North 4.6 mph - N/A   Clear
10:56 PM 55.9 °F - 48.9 °F 77% 30.24 in 10.0 mi NNE 4.6 mph - N/A   Clear
11:56 PM 54.0 °F - 48.9 °F 83% 30.22 in 10.0 mi Calm Calm - N/A   Clear